[[{"header":{"parameterUnit":"m.s-1","parameterCategory":1,"la1":30.2992,"la2":30.254,"lo1":-89.0895,"lo2":-89.0443,"dy":0.0025,"dx":0.0025,"nx":19,"ny":19,"refTime":"2026-03-19T03:00:00:Z","depth":0,"parameterNumber":2,"parameterNumberName":"U-component_of_WINDS"},"data":[0,0,0,0.652,0.6524,0.6686,0.6687,0.6873,0.6874,0,0,0,0,0,0,0,0,0,0,0,0.646,0.6461,0.652,0.6524,0.6686,0.6687,0.6873,0.6874,0,0,0,0,0,0,0,0,0,0,0,0.646,0.6461,0.6462,0.6525,0.6686,0.6687,0.6872,0.6757,0,0,0,0,0,0,0,0,0,0,0.6603,0.6536,0.6461,0.6462,0.6525,0.6686,0.6687,0.6752,0.6764,0.679,0,0.6811,0,0.6845,0.6885,0.6886,0,0,0,0.6533,0.6526,0.658,0.6462,0.6527,0.6685,0.6615,0.6759,0.6773,0.6806,0.6814,0.6821,0.6848,0.6886,0.6887,0.7007,0.7007,0,0,0.6524,0.6483,0.6571,0.6589,0.6563,0.661,0.662,0.6768,0.6773,0.6814,0.6826,0.6851,0.6888,0.6889,0.7007,0.7007,0,0,0,0.6492,0.6476,0.6528,0.6581,0.6611,0.6615,0.6626,0.6766,0.6787,0.6828,0.6854,0.6889,0.6891,0.7007,0.7007,0.6973,0,0,0,0.6487,0.6458,0.6523,0.65,0.6608,0.6691,0.6621,0.6776,0.6794,0.6853,0.6889,0.6892,0.7007,0.7007,0.6974,0.6965,0,0,0,0.6454,0.6454,0.6473,0.6497,0.6566,0.669,0.6719,0.6781,0.6809,0.6886,0.6893,0.7007,0.7007,0.6975,0.6966,0.6984,0,0,0,0.6406,0.6442,0.6472,0.6521,0.6564,0.6668,0.6718,0.6798,0.6859,0.6889,0.7007,0.7007,0.6975,0.6967,0.6984,0.6991,0.699,0,0,0.6428,0.6443,0.6475,0.6507,0.6595,0.6646,0.6729,0.6825,0.687,0.6958,0.6962,0.6974,0.6966,0.6984,0.7,0.6999,0,0,0,0.6468,0.649,0.6523,0.6579,0.6653,0.6715,0.6802,0.6837,0.6915,0.6907,0.6987,0.6983,0.6995,0.7001,0.7,0.7013,0.7008,0.7008,0.7008,0.6439,0.6495,0.6551,0.6626,0.668,0.6769,0.6818,0.688,0.692,0.6938,0.6965,0.6968,0.6973,0.6972,0.6985,0.6973,0.6973,0.6973,0.6973,0.6476,0.6516,0.6568,0.6642,0.6699,0.6761,0.6847,0.6873,0.6939,0.6953,0.6966,0.6976,0.6969,0.6983,0.6971,0.6971,0.6971,0.6972,0.6972,0.6463,0.6492,0.6534,0.6621,0.6682,0.6756,0.6816,0.6866,0.6914,0.6928,0.6961,0.6962,0.6968,0.694,0.694,0.694,0.694,0.694,0.694,0.6433,0.6482,0.6527,0.6607,0.665,0.6712,0.68,0.6843,0.6904,0.6936,0.6936,0.6973,0.6959,0.6954,0.694,0.694,0.694,0.694,0.694,0.645,0.6454,0.6523,0.6566,0.6663,0.6719,0.6783,0.6865,0.6908,0.6936,0.6971,0.6951,0.697,0.6971,0.6968,0.6959,0.6959,0.6959,0.6959,0.6439,0.6453,0.6535,0.6599,0.6668,0.6732,0.6807,0.6876,0.6947,0.6976,0.6985,0.6984,0.6983,0.7003,0.7003,0.7,0.7,0.7,0.7,0.6452,0.6475,0.653,0.66,0.668,0.6746,0.6819,0.6889,0.6971,0.7003,0.7001,0.6999,0.6998,0.6995,0.7027,0.7027,0.7023,0,0]},{"header":{"parameterUnit":"m.s-1","parameterCategory":1,"la1":30.2992,"la2":30.254,"lo1":-89.0895,"lo2":-89.0443,"dy":0.0025,"dx":0.0025,"nx":19,"ny":19,"refTime":"2026-03-19T03:00:00:Z","depth":0,"parameterNumber":3,"parameterNumberName":"V-component_of_WINDS"},"data":[0,0,0,4.7305,4.7306,4.7311,4.7311,4.7337,4.7337,0,0,0,0,0,0,0,0,0,0,0,4.7316,4.7316,4.7305,4.7306,4.7311,4.7311,4.7337,4.7337,0,0,0,0,0,0,0,0,0,0,0,4.7315,4.7316,4.7317,4.7306,4.7311,4.7311,4.7337,4.7326,0,0,0,0,0,0,0,0,0,0,4.7317,4.7339,4.7316,4.7317,4.7306,4.7311,4.7311,4.7325,4.7326,4.7343,0,4.7361,0,4.735,4.734,4.734,0,0,0,4.7297,4.7338,4.7328,4.7317,4.7306,4.7311,4.7306,4.7325,4.7327,4.7345,4.7361,4.7361,4.735,4.7341,4.7341,4.7465,4.7466,0,0,4.7296,4.7323,4.7327,4.733,4.7331,4.7306,4.7306,4.7326,4.7346,4.7361,4.7362,4.735,4.7341,4.7341,4.7464,4.7465,0,0,0,4.7302,4.7324,4.7313,4.7329,4.7329,4.7306,4.7307,4.7345,4.7339,4.7362,4.7351,4.7341,4.7342,4.7463,4.7464,4.7539,0,0,0,4.7301,4.7326,4.7313,4.733,4.7329,4.7337,4.7325,4.7338,4.7339,4.7351,4.7341,4.7342,4.7462,4.7464,4.7535,4.757,0,0,0,4.7311,4.7327,4.7332,4.7331,4.7335,4.7336,4.7331,4.7337,4.7333,4.734,4.7342,4.7461,4.7463,4.7531,4.7563,4.7609,0,0,0,4.733,4.74,4.7334,4.7408,4.7335,4.7383,4.7331,4.7365,4.7381,4.7341,4.7462,4.7464,4.753,4.7559,4.7605,4.7652,4.7674,0,0,4.7434,4.7414,4.7455,4.7396,4.7463,4.738,4.7457,4.7446,4.7423,4.7452,4.7454,4.7536,4.7563,4.7608,4.7793,4.7811,0,0,0,4.7497,4.7527,4.7538,4.7554,4.7547,4.7544,4.7518,4.7513,4.7537,4.7443,4.7565,4.758,4.7606,4.7627,4.7642,4.7661,4.7475,4.7475,4.7475,4.7682,4.7647,4.7712,4.7678,4.7694,4.7666,4.7675,4.7664,4.7625,4.7654,4.7662,4.7778,4.7804,4.7815,4.7836,4.7685,4.7686,4.7686,4.7686,4.7829,4.7865,4.781,4.7854,4.7816,4.7852,4.7827,4.7798,4.7825,4.777,4.7791,4.7732,4.7836,4.7852,4.7691,4.769,4.769,4.7689,4.7689,4.7946,4.7956,4.795,4.7968,4.7985,4.7948,4.7976,4.7941,4.7909,4.7929,4.7933,4.7931,4.7924,4.7934,4.7934,4.7934,4.7935,4.7935,4.7935,4.8069,4.8058,4.8086,4.8084,4.8088,4.809,4.8061,4.8065,4.8059,4.8031,4.8031,4.7988,4.7854,4.7819,4.7941,4.794,4.7939,4.7939,4.7938,4.8229,4.8186,4.823,4.8235,4.8227,4.8246,4.8201,4.8211,4.8208,4.8223,4.8175,4.8082,4.8059,4.8047,4.8018,4.8184,4.8184,4.8184,4.8184,4.8326,4.8311,4.8346,4.8355,4.836,4.8324,4.8372,4.835,4.8321,4.8317,4.8288,4.8248,4.8237,4.822,4.8204,4.8177,4.8379,4.8379,4.8379,4.8422,4.8405,4.8454,4.8424,4.8416,4.8409,4.8453,4.8465,4.8423,4.8387,4.8313,4.8304,4.8239,4.822,4.8181,4.8157,4.8106,0,0]}]]